Flag for Venezuela Weather past 2 weeks in Valencia, Venezuela

Now
88 °F

Scattered clouds.


Feels Like: 94 °F
Forecast: 69 / 84 °F
Wind: 7 mph from Southwest

Location: Valencia Airport

Current Time: Jul 28, 2014 at 2:38:22 PM

Latest Report: Jul 28, 2014 at 1:30 PM


Visibility: N/A

Pressure: 30.04 "Hg

Humidity: 59%

Dew point: 72 °F

Location of ValenciaLocation

Historic Weather in Valencia — Graph

°F

Valencia temperature yesterday

Maximum temperature yesterday: 86 °F (at 2:30 PM)
Minimum temperature yesterday: 73 °F (at 1:30 AM)
Average temperature yesterday: 78 °F

Past Weeks' High & Low Weather Summary

 TemperatureHumidityPressure
High93 °F (Jul 25, 1:30 PM)100% (Jul 16, 5:30 AM)30.12 "Hg (Jul 16, 5:30 AM)
Low72 °F (Jul 16, 6:30 AM)47% (Jul 25, 1:30 PM)29.86 "Hg (Jul 23, 5:30 PM)
Average81 °F75%30.01 "Hg
* Reported Jul 13 12:30 PM — Jul 28 12:30 PM, Valencia, Weather by CustomWeather, © 2014

Note: Actual official high and low records may vary slightly from our data, if they occured in-between our weather recording intervals... More about our weather records

Advertising

Valencia weather history for previous 24 hours

 ConditionsComfort  
Time TempWeatherWind HumidityBarometerVisibility
12:30 PM
Jul 28
86 °FPartly sunny.5 mph62%30.07 "HgN/A
11:30 AM86 °FScattered clouds.6 mph62%30.09 "HgN/A
10:30 AM84 °FPassing clouds.6 mph66%30.09 "HgN/A
9:30 AM81 °FPassing clouds.3 mph74%30.09 "HgN/A
8:30 AM79 °FPassing clouds.5 mph79%30.09 "HgN/A
7:30 AM77 °FScattered clouds.1 mph83%30.07 "HgN/A
6:30 AM73 °FScattered clouds.No wind94%30.04 "HgN/A
5:30 AM73 °FScattered clouds.2 mph94%29.92 "HgN/A
4:30 AM73 °FPassing clouds.5 mph94%30.07 "HgN/A
1:30 AM73 °FPassing clouds.No wind94%30.07 "HgN/A
10:30 PM
Jul 27
73 °FPassing clouds.3 mph94%30.09 "HgN/A
9:30 PM73 °FPassing clouds.10 mph94%30.07 "HgN/A
8:30 PM75 °FPassing clouds.3 mph94%30.04 "HgN/A
7:30 PM75 °FPassing clouds.5 mph89%30.04 "HgN/A
6:30 PM75 °FPassing clouds.9 mph94%30.01 "HgN/A
5:30 PM79 °FScattered clouds.8 mph84%29.98 "HgN/A
4:30 PM82 °FScattered clouds.8 mph79%29.98 "HgN/A
3:30 PM81 °FPartly sunny.3 mph79%29.92 "HgN/A
2:30 PM86 °FScattered clouds.2 mph66%30.01 "HgN/A
Weather by CustomWeather, © 2014

See weather overviewHow to use our weather pages